ZHONGXING-6C

Last updated on Fri Feb 06 2026 00:02:53 GMT+0000 (Coordinated Universal Time)

1 44067U 19012A 26036.65326549 -.00000337 00000+0 00000+0 0 9993 2 44067 0.0411 59.2175 0007066 325.0064 117.0980 1.00274213 25426
UTC large
Height (km)
Speed (km/s)
/
Latitude / Longitude
Inclination (degrees)
Orbital Period (minutes)
Azimuth
Elevation
Range (km)
Doppler Factor

Next 0 passes for location: London (51.5072 / 0.1276)

Sorry there are no passes over London.